QPF
0.14 0.12 0.10 0.09 0.08 0.08 0.09 0.09 0.09 0.09 0.06 0.03 0.02 0.03 0.03 0.04 0.05 0.06 0.05 0.05 0.05 0.06 0.06 0.05 0.04 0.04 0.03 0.03 0.02 0.01 0.01 0.01 0.02 0.03 0.03 0.02 0.02 0.02
0.13 0.13 0.13 0.12 0.11 0.11 0.12 0.12 0.11 0.10 0.08 0.04 0.03 0.03 0.04 0.05 0.06 0.05 0.05 0.05 0.04 0.05 0.06 0.06 0.06 0.05 0.04 0.03 0.02 0.02 0.01 0.01 0.01 0.02 0.03 0.03 0.02 0.03
0.12 0.11 0.11 0.10 0.10 0.10 0.11 0.12 0.14 0.13 0.11 0.07 0.04 0.04 0.04 0.05 0.05 0.05 0.04 0.04 0.04 0.04 0.05 0.06 0.06 0.05 0.05 0.04 0.03 0.02 0.02 0.01 0.01 0.01 0.02 0.03 0.02 0.02
0.09 0.08 0.07 0.07 0.07 0.07 0.08 0.08 0.10 0.10 0.10 0.08 0.05 0.04 0.04 0.05 0.05 0.05 0.04 0.04 0.03 0.04 0.04 0.05 0.07 0.07 0.06 0.05 0.04 0.03 0.02 0.02 0.01 0.01 0.02 0.03 0.03 0.03
0.05 0.05 0.06 0.06 0.06 0.05 0.06 0.06 0.07 0.08 0.10 0.10 0.08 0.05 0.04 0.05 0.06 0.06 0.05 0.05 0.04 0.04 0.05 0.06 0.06 0.07 0.07 0.06 0.05 0.04 0.03 0.02 0.02 0.02 0.03 0.04 0.04 0.04
0.04 0.03 0.03 0.04 0.04 0.05 0.05 0.05 0.06 0.08 0.09 0.10 0.10 0.09 0.06 0.06 0.08 0.09 0.08 0.07 0.06 0.05 0.06 0.06 0.06 0.06 0.07 0.07 0.06 0.05 0.04 0.04 0.04 0.04 0.05 0.05 0.05 0.05
0.03 0.03 0.03 0.03 0.04 0.05 0.05 0.05 0.06 0.08 0.09 0.10 0.11 0.10 0.08 0.07 0.07 0.07 0.08 0.07 0.07 0.07 0.06 0.05 0.05 0.05 0.06 0.06 0.06 0.05 0.05 0.05 0.05 0.06 0.07 0.07 0.07 0.06
0.03 0.03 0.03 0.04 0.04 0.05 0.05 0.06 0.07 0.08 0.09 0.10 0.11 0.10 0.08 0.06 0.05 0.06 0.08 0.09 0.10 0.07 0.06 0.06 0.06 0.05 0.05 0.04 0.05 0.06 0.06 0.07 0.07 0.07 0.07 0.08 0.08 0.06
0.04 0.04 0.04 0.04 0.05 0.04 0.05 0.05 0.06 0.07 0.09 0.09 0.09 0.08 0.07 0.07 0.08 0.10 0.09 0.09 0.08 0.07 0.08 0.09 0.07 0.06 0.04 0.04 0.05 0.06 0.06 0.08 0.08 0.08 0.08 0.08 0.09 0.07
0.02 0.02 0.02 0.03 0.04 0.04 0.05 0.05 0.06 0.06 0.07 0.08 0.08 0.08 0.07 0.09 0.11 0.13 0.12 0.12 0.11 0.10 0.10 0.11 0.09 0.07 0.06 0.06 0.07 0.07 0.07 0.08 0.09 0.09 0.09 0.09 0.10 0.08
0.03 0.03 0.03 0.02 0.03 0.04 0.04 0.05 0.06 0.07 0.07 0.08 0.09 0.09 0.10 0.11 0.13 0.16 0.18 0.18 0.16 0.12 0.09 0.09 0.08 0.08 0.08 0.08 0.08 0.09 0.09 0.10 0.10 0.11 0.10 0.10 0.10 0.10
0.03 0.04 0.05 0.05 0.05 0.05 0.04 0.06 0.06 0.05 0.05 0.06 0.06 0.07 0.08 0.10 0.13 0.15 0.17 0.17 0.15 0.12 0.09 0.08 0.08 0.09 0.11 0.11 0.10 0.09 0.10 0.11 0.11 0.11 0.11 0.11 0.12 0.11
0.04 0.04 0.04 0.05 0.06 0.06 0.06 0.06 0.06 0.06 0.05 0.06 0.06 0.07 0.07 0.08 0.10 0.11 0.13 0.15 0.15 0.12 0.09 0.09 0.09 0.09 0.11 0.11 0.11 0.11 0.10 0.11 0.10 0.11 0.12 0.12 0.12 0.11
0.04 0.04 0.03 0.04 0.04 0.05 0.06 0.06 0.06 0.05 0.05 0.06 0.06 0.06 0.06 0.07 0.08 0.09 0.09 0.10 0.10 0.10 0.09 0.10 0.12 0.11 0.10 0.10 0.11 0.11 0.11 0.11 0.10 0.10 0.10 0.12 0.12 0.11
0.05 0.04 0.03 0.03 0.03 0.03 0.04 0.05 0.06 0.06 0.06 0.06 0.06 0.06 0.06 0.06 0.06 0.08 0.09 0.09 0.09 0.08 0.08 0.09 0.10 0.11 0.12 0.11 0.10 0.10 0.11 0.11 0.11 0.11 0.11 0.11 0.11 0.10
0.04 0.04 0.03 0.03 0.03 0.03 0.04 0.04 0.05 0.06 0.07 0.06 0.06 0.06 0.07 0.08 0.08 0.08 0.10 0.11 0.11 0.11 0.09 0.09 0.09 0.11 0.12 0.12 0.11 0.11 0.11 0.11 0.11 0.11 0.11 0.12 0.11 0.10
0.04 0.04 0.03 0.03 0.03 0.03 0.03 0.04 0.04 0.05 0.06 0.05 0.05 0.05 0.07 0.08 0.09 0.10 0.10 0.10 0.10 0.09 0.08 0.09 0.10 0.12 0.14 0.14 0.14 0.14 0.13 0.13 0.12 0.12 0.12 0.13 0.12 0.12
0.03 0.03 0.04 0.03 0.03 0.03 0.04 0.04 0.04 0.05 0.06 0.06 0.06 0.06 0.06 0.07 0.09 0.10 0.11 0.11 0.10 0.09 0.08 0.08 0.10 0.13 0.16 0.17 0.16 0.13 0.13 0.13 0.14 0.14 0.13 0.13 0.13 0.12
0.02 0.02 0.02 0.03 0.03 0.03 0.03 0.04 0.04 0.05 0.06 0.06 0.06 0.06 0.07 0.08 0.08 0.09 0.11 0.11 0.11 0.11 0.10 0.11 0.11 0.12 0.13 0.13 0.12 0.11 0.11 0.12 0.13 0.14 0.14 0.13 0.12 0.11
0.01 0.02 0.02 0.02 0.03 0.03 0.03 0.04 0.04 0.04 0.05 0.05 0.06 0.06 0.06 0.07 0.08 0.09 0.09 0.10 0.11 0.11 0.11 0.12 0.12 0.12 0.12 0.10 0.10 0.11 0.11 0.12 0.13 0.13 0.13 0.13 0.13 0.14
0.01 0.01 0.02 0.02 0.02 0.03 0.03 0.04 0.04 0.04 0.05 0.06 0.06 0.07 0.07 0.08 0.08 0.08 0.09 0.10 0.11 0.12 0.12 0.12 0.12 0.12 0.13 0.13 0.14 0.15 0.14 0.14 0.14 0.13 0.12 0.13 0.14 0.15
0.02 0.02 0.02 0.02 0.03 0.03 0.03 0.04 0.04 0.05 0.05 0.05 0.05 0.06 0.07 0.08 0.09 0.09 0.09 0.11 0.12 0.12 0.13 0.13 0.14 0.15 0.17 0.17 0.16 0.15 0.16 0.16 0.16 0.16 0.14 0.12 0.11 0.11
0.02 0.02 0.02 0.03 0.03 0.03 0.03 0.04 0.04 0.05 0.05 0.05 0.06 0.06 0.06 0.07 0.08 0.09 0.10 0.10 0.11 0.12 0.13 0.14 0.16 0.17 0.17 0.17 0.17 0.16 0.16 0.16 0.16 0.16 0.16 0.13 0.10 0.08
MSLP
1009.02 1009.28 1009.52 1009.77 1010.03 1010.28 1010.54 1010.80 1011.06 1011.31 1011.57 1011.84 1012.12 1012.41 1012.72 1013.03 1013.34 1013.64 1013.93 1014.19 1014.42 1014.64 1014.83 1015.03 1015.24 1015.48 1015.76 1016.09 1016.46 1016.87 1017.28 1017.67 1018.02 1018.28 1018.44 1018.47 1018.39 1018.21
1008.29 1008.56 1008.80 1009.03 1009.26 1009.48 1009.72 1009.97 1010.24 1010.52 1010.81 1011.11 1011.43 1011.76 1012.10 1012.43 1012.77 1013.08 1013.38 1013.66 1013.91 1014.14 1014.36 1014.57 1014.79 1015.04 1015.32 1015.64 1016.00 1016.39 1016.79 1017.18 1017.52 1017.79 1017.96 1018.01 1017.94 1017.78
1007.51 1007.78 1008.01 1008.22 1008.42 1008.62 1008.84 1009.08 1009.35 1009.64 1009.96 1010.30 1010.65 1011.02 1011.40 1011.77 1012.13 1012.48 1012.81 1013.11 1013.39 1013.65 1013.89 1014.12 1014.36 1014.61 1014.89 1015.20 1015.55 1015.92 1016.30 1016.68 1017.01 1017.28 1017.45 1017.51 1017.46 1017.32
1006.76 1007.01 1007.22 1007.39 1007.56 1007.73 1007.92 1008.14 1008.39 1008.68 1009.00 1009.35 1009.73 1010.12 1010.53 1010.94 1011.34 1011.73 1012.10 1012.45 1012.77 1013.07 1013.35 1013.61 1013.86 1014.13 1014.41 1014.71 1015.05 1015.40 1015.78 1016.14 1016.47 1016.74 1016.92 1016.99 1016.96 1016.83
1006.17 1006.37 1006.53 1006.66 1006.77 1006.89 1007.03 1007.19 1007.40 1007.65 1007.94 1008.27 1008.64 1009.04 1009.46 1009.89 1010.34 1010.77 1011.20 1011.60 1011.98 1012.33 1012.65 1012.95 1013.24 1013.52 1013.80 1014.11 1014.44 1014.79 1015.16 1015.52 1015.85 1016.13 1016.33 1016.43 1016.42 1016.32
1005.86 1005.98 1006.07 1006.12 1006.16 1006.20 1006.26 1006.34 1006.46 1006.63 1006.85 1007.12 1007.44 1007.81 1008.22 1008.67 1009.14 1009.62 1010.09 1010.56 1011.00 1011.40 1011.78 1012.12 1012.43 1012.73 1013.03 1013.34 1013.67 1014.02 1014.39 1014.76 1015.11 1015.42 1015.65 1015.78 1015.81 1015.74
1005.89 1005.92 1005.92 1005.89 1005.84 1005.77 1005.72 1005.69 1005.69 1005.74 1005.84 1006.01 1006.25 1006.56 1006.93 1007.36 1007.83 1008.34 1008.86 1009.37 1009.86 1010.32 1010.73 1011.10 1011.44 1011.75 1012.06 1012.37 1012.71 1013.06 1013.44 1013.84 1014.21 1014.55 1014.83 1015.01 1015.09 1015.08
1006.30 1006.23 1006.13 1006.00 1005.84 1005.67 1005.49 1005.33 1005.19 1005.09 1005.05 1005.09 1005.21 1005.43 1005.73 1006.12 1006.58 1007.08 1007.62 1008.16 1008.68 1009.16 1009.60 1009.98 1010.33 1010.64 1010.94 1011.24 1011.57 1011.94 1012.33 1012.74 1013.15 1013.53 1013.85 1014.09 1014.24 1014.29
1007.03 1006.87 1006.68 1006.45 1006.20 1005.92 1005.62 1005.32 1005.04 1004.79 1004.60 1004.50 1004.49 1004.60 1004.81 1005.13 1005.55 1006.03 1006.55 1007.08 1007.60 1008.08 1008.50 1008.87 1009.19 1009.48 1009.75 1010.04 1010.35 1010.70 1011.09 1011.52 1011.95 1012.37 1012.74 1013.04 1013.25 1013.37
1007.97 1007.73 1007.47 1007.18 1006.85 1006.49 1006.09 1005.68 1005.28 1004.90 1004.58 1004.34 1004.21 1004.20 1004.32 1004.56 1004.91 1005.33 1005.80 1006.29 1006.76 1007.19 1007.57 1007.89 1008.16 1008.39 1008.62 1008.86 1009.13 1009.46 1009.84 1010.26 1010.70 1011.14 1011.54 1011.89 1012.16 1012.35
1008.98 1008.70 1008.40 1008.07 1007.70 1007.29 1006.84 1006.36 1005.87 1005.40 1004.98 1004.64 1004.41 1004.30 1004.32 1004.47 1004.73 1005.07 1005.46 1005.87 1006.25 1006.60 1006.89 1007.13 1007.32 1007.47 1007.63 1007.81 1008.03 1008.31 1008.66 1009.05 1009.48 1009.92 1010.33 1010.70 1011.01 1011.26
1009.93 1009.63 1009.32 1008.99 1008.62 1008.20 1007.74 1007.24 1006.72 1006.21 1005.74 1005.34 1005.03 1004.84 1004.78 1004.84 1004.99 1005.23 1005.51 1005.80 1006.08 1006.31 1006.49 1006.62 1006.71 1006.77 1006.84 1006.95 1007.11 1007.33 1007.62 1007.97 1008.37 1008.77 1009.18 1009.54 1009.87 1010.14
1010.75 1010.45 1010.16 1009.86 1009.52 1009.13 1008.70 1008.22 1007.72 1007.21 1006.73 1006.30 1005.96 1005.71 1005.57 1005.53 1005.58 1005.70 1005.85 1006.01 1006.15 1006.25 1006.30 1006.31 1006.29 1006.26 1006.25 1006.28 1006.36 1006.52 1006.75 1007.05 1007.38 1007.74 1008.10 1008.44 1008.76 1009.04
1011.39 1011.13 1010.87 1010.60 1010.31 1009.98 1009.60 1009.18 1008.73 1008.26 1007.80 1007.38 1007.01 1006.73 1006.52 1006.39 1006.33 1006.32 1006.33 1006.35 1006.34 1006.30 1006.22 1006.12 1005.99 1005.88 1005.78 1005.74 1005.76 1005.86 1006.02 1006.25 1006.52 1006.81 1007.11 1007.41 1007.69 1007.97
1011.90 1011.66 1011.44 1011.23 1010.99 1010.72 1010.41 1010.05 1009.66 1009.24 1008.82 1008.41 1008.04 1007.71 1007.44 1007.22 1007.05 1006.90 1006.77 1006.64 1006.48 1006.31 1006.11 1005.90 1005.69 1005.50 1005.34 1005.24 1005.21 1005.25 1005.35 1005.51 1005.71 1005.93 1006.16 1006.41 1006.65 1006.91
1012.34 1012.12 1011.93 1011.75 1011.56 1011.34 1011.08 1010.78 1010.44 1010.07 1009.68 1009.28 1008.90 1008.53 1008.19 1007.88 1007.58 1007.30 1007.02 1006.74 1006.45 1006.15 1005.85 1005.55 1005.27 1005.03 1004.83 1004.70 1004.62 1004.61 1004.66 1004.76 1004.89 1005.04 1005.21 1005.40 1005.61 1005.85
1012.75 1012.56 1012.39 1012.22 1012.05 1011.86 1011.63 1011.36 1011.06 1010.71 1010.33 1009.93 1009.52 1009.10 1008.68 1008.26 1007.84 1007.42 1007.01 1006.59 1006.18 1005.77 1005.38 1005.02 1004.69 1004.41 1004.19 1004.03 1003.93 1003.89 1003.89 1003.93 1004.00 1004.10 1004.21 1004.36 1004.54 1004.77
1013.20 1013.01 1012.84 1012.68 1012.51 1012.32 1012.09 1011.83 1011.52 1011.17 1010.78 1010.35 1009.88 1009.39 1008.88 1008.34 1007.80 1007.25 1006.71 1006.17 1005.65 1005.15 1004.70 1004.29 1003.94 1003.64 1003.41 1003.24 1003.12 1003.05 1003.02 1003.02 1003.04 1003.09 1003.16 1003.28 1003.45 1003.69
1013.66 1013.48 1013.30 1013.13 1012.94 1012.73 1012.49 1012.20 1011.87 1011.49 1011.06 1010.57 1010.03 1009.45 1008.83 1008.19 1007.52 1006.85 1006.19 1005.54 1004.94 1004.38 1003.87 1003.44 1003.07 1002.78 1002.55 1002.37 1002.25 1002.16 1002.10 1002.06 1002.04 1002.05 1002.10 1002.20 1002.37 1002.64
1014.10 1013.92 1013.74 1013.55 1013.33 1013.09 1012.82 1012.49 1012.12 1011.69 1011.19 1010.64 1010.02 1009.34 1008.62 1007.86 1007.08 1006.29 1005.53 1004.80 1004.13 1003.52 1003.00 1002.55 1002.19 1001.90 1001.68 1001.51 1001.38 1001.28 1001.19 1001.12 1001.08 1001.06 1001.08 1001.18 1001.37 1001.67
1014.44 1014.28 1014.09 1013.88 1013.65 1013.38 1013.07 1012.70 1012.27 1011.78 1011.22 1010.58 1009.87 1009.10 1008.27 1007.41 1006.53 1005.66 1004.81 1004.02 1003.31 1002.68 1002.15 1001.72 1001.37 1001.11 1000.91 1000.75 1000.62 1000.51 1000.40 1000.31 1000.24 1000.20 1000.22 1000.32 1000.52 1000.86
1014.62 1014.47 1014.30 1014.09 1013.84 1013.55 1013.20 1012.79 1012.31 1011.76 1011.13 1010.41 1009.62 1008.76 1007.84 1006.89 1005.92 1004.98 1004.08 1003.26 1002.53 1001.90 1001.39 1000.99 1000.68 1000.45 1000.28 1000.14 1000.03 999.91 999.80 999.69 999.60 999.55 999.57 999.67 999.90 1000.26
1014.58 1014.47 1014.32 1014.12 1013.87 1013.56 1013.19 1012.74 1012.22 1011.61 1010.91 1010.13 1009.26 1008.31 1007.32 1006.29 1005.27 1004.28 1003.35 1002.52 1001.79 1001.19 1000.72 1000.36 1000.11 999.93 999.81 999.71 999.62 999.52 999.42 999.31 999.22 999.16 999.17 999.28 999.52 999.90
Thickness
5595 5595 5595 5595 5594 5594 5593 5591 5590 5591 5596 5598 5597 5598 5596 5594 5593 5592 5591 5591 5590 5589 5589 5589 5590 5590 5589 5588 5587 5586 5585 5584 5583 5582 5582 5582 5582 5583
5584 5584 5584 5585 5584 5584 5582 5581 5580 5580 5583 5589 5588 5587 5586 5584 5584 5582 5582 5582 5581 5581 5581 5580 5581 5581 5581 5580 5580 5578 5577 5576 5575 5575 5574 5574 5574 5574
5572 5573 5574 5574 5574 5573 5572 5570 5568 5568 5570 5574 5574 5574 5572 5572 5572 5571 5571 5571 5571 5572 5572 5572 5572 5572 5572 5572 5572 5570 5569 5568 5567 5566 5565 5565 5566 5566
5562 5563 5564 5564 5563 5563 5561 5560 5559 5558 5557 5559 5561 5560 5561 5561 5561 5560 5560 5560 5561 5563 5563 5563 5563 5564 5564 5563 5563 5562 5561 5560 5559 5558 5557 5557 5557 5557
5551 5552 5553 5553 5553 5552 5551 5550 5549 5548 5547 5546 5548 5549 5549 5549 5548 5549 5549 5550 5551 5552 5554 5554 5554 5554 5554 5554 5554 5554 5553 5552 5550 5549 5548 5548 5548 5549
5540 5540 5541 5542 5543 5542 5540 5539 5538 5537 5536 5535 5536 5536 5537 5537 5535 5537 5539 5540 5541 5542 5543 5544 5544 5544 5545 5546 5546 5546 5545 5543 5542 5541 5540 5540 5541 5542
5528 5529 5530 5531 5531 5531 5530 5529 5527 5526 5525 5525 5525 5524 5525 5524 5525 5527 5528 5530 5532 5532 5533 5534 5534 5535 5536 5536 5536 5536 5537 5536 5535 5534 5533 5533 5533 5533
5517 5518 5519 5519 5520 5520 5519 5518 5517 5516 5515 5514 5514 5514 5515 5515 5515 5515 5516 5517 5521 5523 5521 5525 5524 5526 5527 5528 5528 5528 5528 5528 5527 5527 5526 5525 5525 5526
5505 5506 5508 5508 5507 5507 5507 5506 5505 5504 5503 5503 5503 5504 5504 5504 5503 5504 5504 5506 5510 5511 5508 5515 5516 5517 5519 5519 5520 5520 5520 5520 5519 5518 5518 5518 5518 5518
5494 5495 5496 5496 5495 5495 5495 5494 5494 5493 5492 5491 5492 5493 5492 5491 5491 5493 5494 5495 5497 5497 5497 5501 5506 5507 5509 5510 5511 5511 5511 5511 5511 5510 5509 5509 5509 5508
5484 5484 5484 5484 5485 5483 5483 5483 5483 5483 5482 5480 5480 5480 5480 5480 5480 5479 5481 5481 5485 5487 5486 5487 5493 5493 5496 5499 5501 5501 5500 5501 5501 5500 5500 5499 5500 5499
5474 5474 5473 5473 5473 5472 5471 5470 5470 5471 5469 5468 5468 5468 5468 5468 5468 5467 5469 5470 5472 5475 5476 5475 5477 5477 5481 5485 5487 5489 5489 5490 5490 5491 5491 5490 5490 5489
5463 5462 5462 5462 5461 5460 5459 5458 5458 5458 5457 5456 5456 5457 5457 5457 5456 5456 5457 5458 5460 5463 5464 5462 5463 5465 5467 5470 5474 5477 5478 5479 5480 5480 5481 5481 5481 5482
5451 5451 5451 5451 5449 5448 5447 5447 5446 5444 5443 5443 5444 5445 5445 5445 5445 5445 5446 5449 5451 5452 5454 5452 5452 5454 5456 5458 5461 5464 5465 5467 5469 5470 5470 5471 5472 5473
5440 5440 5439 5439 5438 5436 5435 5434 5433 5431 5431 5431 5431 5432 5432 5433 5433 5434 5436 5438 5440 5441 5441 5442 5443 5444 5447 5450 5452 5452 5453 5455 5457 5458 5459 5460 5462 5464
5428 5427 5427 5426 5424 5424 5423 5421 5419 5418 5418 5418 5419 5420 5420 5420 5421 5422 5424 5426 5427 5429 5430 5431 5433 5435 5437 5441 5443 5444 5444 5445 5447 5448 5448 5449 5450 5452
5416 5415 5414 5413 5411 5410 5409 5408 5406 5405 5405 5405 5406 5408 5408 5409 5410 5412 5413 5414 5415 5417 5419 5420 5422 5425 5428 5431 5433 5435 5435 5436 5438 5438 5436 5437 5439 5442
5403 5401 5400 5399 5398 5396 5395 5394 5393 5392 5392 5392 5394 5395 5396 5397 5399 5401 5401 5403 5406 5408 5409 5410 5412 5413 5416 5419 5423 5425 5426 5427 5427 5426 5427 5428 5429 5432
5390 5388 5387 5386 5384 5383 5382 5381 5380 5379 5378 5379 5381 5383 5384 5385 5387 5389 5391 5392 5395 5397 5399 5400 5402 5405 5409 5412 5413 5415 5416 5416 5415 5415 5416 5419 5423 5425
5377 5375 5373 5371 5370 5369 5368 5367 5367 5366 5366 5367 5368 5370 5372 5373 5375 5377 5379 5382 5384 5387 5389 5391 5393 5396 5401 5403 5402 5402 5404 5405 5406 5406 5406 5407 5409 5412
5364 5362 5360 5358 5357 5356 5355 5354 5354 5354 5354 5355 5356 5358 5360 5362 5364 5367 5370 5373 5375 5377 5380 5383 5386 5387 5388 5389 5390 5390 5390 5393 5396 5398 5398 5398 5399 5401
5351 5349 5348 5346 5345 5344 5344 5343 5343 5343 5343 5344 5345 5347 5349 5351 5354 5357 5360 5363 5366 5369 5371 5373 5375 5376 5379 5381 5382 5381 5380 5380 5382 5385 5387 5391 5393 5396
5339 5337 5336 5335 5334 5333 5333 5333 5333 5333 5333 5334 5335 5337 5339 5341 5343 5346 5349 5353 5356 5359 5361 5363 5364 5367 5369 5370 5369 5369 5369 5370 5371 5372 5374 5378 5382 5386